Fort Smith, AR

2:27 AM CDT on September 01, 2016 (GMT -0500)
Fort Smith Regional

Weather History for KFSM - January, 2012

Change the Weather History Date:

Monday, January 16, 2012

  Actual Average Record
Temperature  
Mean Temperature 61 °F 39 °F  
Max Temperature 73 °F 50 °F 77 °F (1894)
Min Temperature 49 °F 29 °F 6 °F (1982)
Degree Days  
Heating Degree Days 4 26  
Month to date heating degree days 313 416  
Since 1 July heating degree days 1368 1715  
Cooling Degree Days 1    
Growing Degree Days 16 (Base 50)    
Moisture  
Dew Point 54 °F    
Average Humidity 61    
Maximum Humidity 69    
Minimum Humidity 53    
Precipitation  
Precipitation 0.00 in 0.09 in 1.71 in (1990)
Month to date precipitation 1.07 1.40  
Year to date precipitation 1.07 1.40  
Sea Level Pressure  
Sea Level Pressure 29.89 in    
Wind  
Wind Speed 17 mph (SSW)    
Max Wind Speed 30 mph    
Max Gust Speed 38 mph    
Visibility 10 miles    
Events      
T = Trace of Precipitation, MM = Missing Value Source: NWS Daily Summary

Daily Weather History Graph

Daily Weather History Graph

Search for Another Location

Airport or City:

Trip Planner

Search our weather history database for the weather conditions in past years. The results will help you decide how hot, cold, wet, or windy it might be!

Date:

Astronomy

Jan. 16, 2012 Rise Set
Actual Time 7:25 AM CST 5:28 PM CST
Civil Twilight 6:57 AM CST 5:56 PM CST
Nautical Twilight 6:26 AM CST 6:27 PM CST
Astronomical Twilight 5:56 AM CST 6:58 PM CST
Moon 12:39 AM CST (1/16) 11:40 AM CST (1/16)
Length of Visible Light 10h 58m
Length of Day
10h 03m
Last Quarter, 46% of the Moon is Illuminated
Jan 16
Last Quarter
Jan 23
New
Jan 30
First Quarter
Feb 7
Full
Feb 14
Last Quarter

Hourly Weather History & Observations

Time (CST) Temp. Dew Point Humidity Pressure Visibility Wind Dir Wind Speed Gust Speed Precip Events Conditions
12:53 AM 60.1 °F 46.0 °F 60% 30.03 in 10.0 mi South 11.5 mph 19.6 mph N/A   Overcast
1:53 AM 61.0 °F 48.0 °F 62% 30.01 in 10.0 mi SSW 13.8 mph 24.2 mph N/A   Mostly Cloudy
2:53 AM 61.0 °F 48.9 °F 64% 29.99 in 10.0 mi SSW 10.4 mph 19.6 mph N/A   Mostly Cloudy
3:53 AM 61.0 °F 50.0 °F 67% 29.98 in 10.0 mi SSW 9.2 mph 19.6 mph N/A   Mostly Cloudy
4:53 AM 62.1 °F 51.1 °F 67% 29.96 in 10.0 mi SW 12.7 mph 21.9 mph N/A   Mostly Cloudy
5:53 AM 62.1 °F 52.0 °F 70% 29.96 in 10.0 mi SSW 15.0 mph 23.0 mph N/A   Overcast
6:53 AM 62.1 °F 52.0 °F 70% 29.95 in 10.0 mi SW 15.0 mph 21.9 mph N/A   Clear
7:53 AM 63.0 °F 52.0 °F 67% 29.95 in 10.0 mi SW 15.0 mph 21.9 mph N/A   Clear
8:53 AM 64.0 °F 53.1 °F 67% 29.96 in 10.0 mi SSW 17.3 mph 26.5 mph N/A   Clear
9:53 AM 66.9 °F 54.0 °F 63% 29.96 in 10.0 mi SW 15.0 mph 25.3 mph N/A   Overcast
10:53 AM 69.8 °F 53.6 °F 56% 29.95 in 10.0 mi SSW 19.6 mph 32.2 mph N/A   Scattered Clouds
11:53 AM 71.1 °F 54.0 °F 55% 29.91 in 10.0 mi SW 21.9 mph 31.1 mph N/A   Scattered Clouds
12:53 PM 71.1 °F 54.0 °F 55% 29.87 in 10.0 mi SSW 26.5 mph 35.7 mph N/A   Partly Cloudy
1:53 PM 72.0 °F 54.0 °F 53% 29.83 in 10.0 mi SSW 24.2 mph 35.7 mph N/A   Partly Cloudy
2:53 PM 72.0 °F 55.0 °F 55% 29.82 in 10.0 mi SSW 16.1 mph 27.6 mph N/A   Partly Cloudy
3:53 PM 71.1 °F 55.0 °F 57% 29.82 in 10.0 mi SSW 19.6 mph 29.9 mph N/A   Clear
4:53 PM 70.0 °F 55.9 °F 61% 29.82 in 10.0 mi SSW 18.4 mph 25.3 mph N/A   Clear
5:53 PM 69.1 °F 57.0 °F 65% 29.81 in 10.0 mi SSW 16.1 mph 23.0 mph N/A   Clear
6:53 PM 69.1 °F 57.0 °F 65% 29.80 in 10.0 mi SSW 20.7 mph 28.8 mph N/A   Clear
7:53 PM 68.0 °F 57.2 °F 68% 29.80 in 10.0 mi SSW 17.3 mph 27.6 mph N/A   Clear
8:53 PM 69.1 °F 57.0 °F 65% 29.80 in 10.0 mi SSW 17.3 mph 28.8 mph N/A   Clear
9:53 PM 70.0 °F 57.9 °F 65% 29.80 in 10.0 mi SSW 18.4 mph 28.8 mph N/A   Clear
10:53 PM 70.0 °F 57.9 °F 65% 29.78 in 10.0 mi SSW 19.6 mph 29.9 mph N/A   Partly Cloudy
11:53 PM 70.0 °F 57.9 °F 65% 29.78 in 10.0 mi SSW 19.6 mph 29.9 mph N/A   Scattered Clouds